EHI
2 2 2 1 0 1 2 3 2 2 2 1 0 0 0 0 0 0 0 0 0 0 0 0 0 0 0 0 0 0 0 0 0 0 0 0 0 0 0 0 0 0 0
1 1 1 0 0 0 1 2 1 1 1 0 0 0 0 0 0 0 0 0 0 0 0 0 0 0 0 0 0 0 0 0 0 0 0 0 0 0 0 0 0 0 0
0 0 0 0 0 0 0 0 0 0 0 0 0 0 0 0 0 0 0 0 0 0 0 0 0 0 0 0 0 0 0 0 0 0 0 0 0 0 0 0 0 0 0
0 0 0 0 0 0 0 0 0 0 0 0 0 0 0 0 0 0 0 0 0 0 0 0 0 0 0 0 0 0 0 0 0 0 0 0 0 0 0 0 0 0 0
0 0 0 0 0 0 0 0 0 0 0 0 0 0 0 0 0 0 0 0 0 0 0 0 0 0 0 0 0 0 0 0 0 0 0 0 0 0 0 0 0 0 0
0 0 0 0 0 0 0 0 0 0 0 0 0 0 0 0 0 0 0 0 0 0 0 0 0 0 0 0 0 0 0 0 0 0 0 0 0 0 0 0 0 0 0
0 0 0 0 0 0 0 0 0 0 0 0 0 0 0 0 0 0 0 0 0 0 0 0 0 0 0 0 0 0 0 0 0 0 0 0 0 0 0 0 0 0 0
0 0 0 0 0 0 0 0 0 0 0 0 0 0 0 0 0 0 0 0 0 0 0 0 0 0 0 0 0 0 0 0 0 0 0 0 0 0 0 0 0 0 0
0 0 0 0 0 0 0 0 0 0 0 0 0 0 0 0 0 0 0 0 0 0 0 0 0 0 0 0 0 0 0 0 0 0 0 0 0 0 0 0 0 0 0
0 0 0 0 0 0 0 0 0 0 0 0 0 0 0 0 0 0 0 0 0 0 0 0 0 0 0 0 0 0 0 0 0 0 0 0 0 0 0 0 0 0 0
0 0 0 0 0 0 0 0 0 0 0 0 0 0 0 0 0 0 0 0 0 0 0 0 0 0 0 0 0 0 0 0 0 0 0 0 0 0 0 0 0 0 0
0 0 0 0 0 0 0 0 0 0 0 0 0 0 0 0 0 0 0 0 0 0 0 0 0 0 0 0 0 0 0 0 0 0 0 0 0 0 0 0 0 0 0
0 0 0 0 0 0 0 0 0 0 0 0 0 0 0 0 0 0 0 0 0 0 0 0 0 0 0 0 0 0 0 0 0 0 0 0 0 0 0 0 0 0 0
0 0 0 0 0 0 0 0 0 0 0 0 0 0 0 0 0 0 0 0 0 0 0 0 0 0 0 0 0 0 0 0 0 0 0 0 0 0 0 0 0 0 0
0 0 0 0 0 0 0 0 0 0 0 0 0 0 0 0 0 0 0 0 0 0 0 0 0 0 0 0 0 0 0 0 0 0 0 0 0 0 0 0 0 0 0
0 0 0 0 0 0 0 0 0 0 0 0 0 0 0 0 0 0 0 0 0 0 0 0 0 0 0 0 0 0 0 0 0 0 0 0 0 0 0 0 0 0 0
0 0 0 0 0 0 0 0 0 0 0 0 0 0 0 0 0 0 0 0 0 0 0 0 0 0 0 0 0 0 0 0 0 0 0 0 0 0 0 0 0 0 0
0 0 0 0 0 0 0 0 0 0 0 0 0 0 0 0 0 0 0 0 0 0 0 0 0 0 0 0 0 0 0 0 0 0 0 0 0 0 0 0 0 0 0
0 0 0 0 0 0 0 0 0 0 0 0 0 0 0 0 0 0 0 0 0 0 0 0 0 0 0 0 0 0 0 0 0 0 0 0 0 0 0 0 0 0 0
0 0 0 0 0 0 0 0 0 0 0 0 0 0 0 0 0 0 0 0 0 0 0 0 0 0 0 0 0 0 0 0 0 0 0 0 0 0 0 0 0 0 0
0 0 0 0 0 0 0 0 0 0 0 0 0 0 0 0 0 0 0 0 0 0 0 0 0 0 0 0 0 0 0 0 0 0 0 0 0 0 0 0 0 0 0
0 0 0 0 0 0 0 0 0 0 0 0 0 0 0 0 0 0 0 0 0 0 0 0 0 0 0 0 0 0 0 0 0 0 0 0 0 0 0 0 0 0 0
0 0 0 0 0 0 0 0 0 0 0 0 0 0 0 0 0 0 0 0 0 0 0 0 0 0 0 0 0 0 0 0 0 0 0 0 0 0 0 0 0 0 0
0 0 0 0 0 0 0 0 0 0 0 0 0 0 0 0 0 0 0 0 0 0 0 0 0 0 0 0 0 0 0 0 0 0 0 0 0 0 0 0 0 0 0
0 0 0 0 0 0 0 0 0 0 0 0 0 0 0 0 0 0 0 0 0 0 0 0 0 0 0 0 0 0 0 0 0 0 0 0 0 0 0 0 0 0 0
0 0 0 0 0 0 0 0 0 0 0 0 0 0 0 0 0 0 0 0 0 0 0 0 0 0 0 0 0 0 0 0 0 0 0 0 0 0 0 0 0 0 0
Wind_Speed
7 6 6 5 6 6 6 6 5 5 6 6 6 6 6 7 7 6 6 6 6 5 5 5 5 4 3 2 3 3 3 4 6 5 4 5 5 5 4 3 4 4 5
6 5 5 5 5 6 6 5 5 6 6 6 6 7 7 7 7 7 7 7 7 7 7 6 6 5 5 4 4 5 4 4 7 8 5 4 4 4 4 4 4 5 5
5 6 5 5 5 5 5 5 5 6 6 6 6 7 7 7 7 7 7 7 7 7 7 7 7 6 6 5 5 5 4 5 5 7 5 3 3 3 4 3 3 3 5
6 6 6 6 6 5 5 5 5 5 6 6 6 7 7 9 9 8 7 7 8 8 7 8 8 7 6 5 6 6 6 6 6 6 6 4 3 3 3 3 2 2 3
5 6 6 5 5 5 5 5 5 5 6 6 7 7 7 8 9 9 7 8 7 7 8 8 9 11 11 7 6 5 5 5 4 5 5 4 3 3 3 2 3 3 2
5 5 5 5 5 5 5 5 5 6 6 7 8 8 9 9 12 13 10 7 7 7 7 6 8 9 11 12 13 10 7 5 4 3 3 4 4 3 2 2 2 2 1
5 5 5 5 6 5 6 6 6 6 6 7 7 8 8 10 13 13 12 6 7 7 7 7 8 10 9 7 9 10 10 10 8 5 5 4 4 2 2 2 2 2 1
5 5 5 4 5 5 5 6 6 5 5 5 6 6 6 9 13 12 10 6 6 7 8 8 8 8 9 7 7 8 8 8 7 6 5 5 4 3 2 1 1 1 1
5 5 5 5 5 5 5 5 5 4 4 5 5 5 6 7 12 12 9 4 5 7 8 9 8 8 12 10 7 7 6 5 7 8 7 5 5 4 3 2 2 1 0
5 5 5 5 6 5 5 4 4 4 4 5 5 5 6 6 10 13 10 4 4 5 5 7 11 10 11 11 6 6 5 4 3 3 2 1 2 2 1 1 1 1 1
5 5 6 5 5 5 4 3 3 3 4 4 4 4 5 5 7 11 11 5 4 4 4 4 5 8 9 9 7 5 3 3 1 1 1 1 1 1 1 1 0 1 1
5 5 5 3 4 5 3 3 3 3 3 3 3 3 3 4 5 7 9 9 7 5 5 4 3 5 6 6 4 5 6 5 1 0 1 1 1 1 1 1 0 0 1
5 4 4 4 3 3 2 2 1 1 1 1 2 2 3 3 2 4 5 7 8 4 3 2 2 2 3 3 3 5 4 2 1 2 1 1 1 1 1 1 2 2 3
5 4 3 3 3 3 2 2 3 4 3 3 2 2 3 3 3 3 2 2 2 2 2 1 3 4 3 3 3 2 1 1 2 1 0 0 0 0 1 1 1 1 2
4 3 3 4 4 4 5 5 5 5 4 4 5 4 4 4 3 4 4 4 4 5 5 3 2 2 2 1 1 0 0 1 1 1 1 1 1 1 1 1 1 2 2
4 3 3 3 3 4 5 4 7 5 5 6 5 4 4 4 2 4 5 6 7 7 5 3 2 1 1 1 1 0 1 2 1 2 1 1 1 1 1 1 1 2 2
2 2 2 3 3 3 4 5 4 3 2 2 2 3 2 1 1 3 5 8 8 6 3 2 1 1 1 1 1 2 2 1 1 1 1 1 1 1 2 2 2 2 2
3 3 2 2 2 3 3 4 4 5 5 4 3 3 3 3 3 4 5 6 5 4 3 2 1 1 1 1 1 2 1 1 1 1 2 2 2 2 2 2 2 2 2
3 2 2 2 2 2 2 3 3 3 4 5 5 4 6 5 6 7 4 4 5 3 1 0 0 1 1 1 1 1 1 1 1 1 2 2 2 2 3 3 2 3 3
2 1 1 2 2 2 3 2 2 2 2 3 4 5 5 5 5 5 5 5 4 2 1 1 1 0 1 1 1 1 1 1 1 2 1 1 2 2 3 4 4 3 3
5 5 5 5 4 3 2 2 2 2 2 3 2 4 4 4 4 4 4 3 3 1 1 1 2 2 2 2 1 0 1 1 1 1 2 2 2 2 3 3 4 4 4
4 5 6 5 4 3 2 2 3 3 3 3 4 5 6 5 4 2 2 2 2 1 1 1 2 2 1 1 1 1 2 2 1 1 2 2 3 3 3 3 4 4 4
5 5 5 4 3 3 4 4 3 3 3 3 3 4 6 5 4 2 2 2 2 2 2 2 2 2 1 0 1 2 2 1 2 1 2 3 3 4 4 4 5 6 6
6 5 5 5 5 5 5 4 4 4 3 2 2 2 3 3 3 2 2 2 2 3 3 3 3 3 3 2 2 2 1 1 1 2 3 4 5 5 5 5 6 7 7
7 6 5 5 5 5 4 4 4 3 3 3 3 3 3 3 3 3 3 3 3 4 4 4 3 4 5 5 4 3 4 4 4 3 3 4 6 6 7 7 7 7 7
7 7 6 5 4 4 4 4 4 3 3 3 3 3 3 3 3 3 3 3 3 4 4 4 5 6 6 5 6 6 7 7 7 6 5 5 6 7 7 6 9 9 9
Wind_Direction
52 46 43 43 43 43 43 37 30 25 27 33 31 30 28 26 26 30 40 41 43 39 40 53 56 57 71 81 93 97 97 108 121 115 111 130 131 139 147 166 166 167 169
62 57 52 52 50 47 46 39 36 32 29 35 37 36 40 39 33 35 41 45 46 45 43 47 51 59 67 76 84 92 96 101 123 126 128 135 142 157 161 174 173 173 168
69 67 58 55 58 54 50 45 41 41 37 39 43 43 41 41 42 43 46 50 50 50 51 53 53 57 61 69 81 87 94 105 110 122 127 131 143 167 167 181 176 163 172
70 65 60 55 53 52 51 49 47 45 45 44 47 49 47 43 39 38 44 53 54 54 57 59 56 56 60 68 82 88 98 103 113 122 132 143 153 171 164 170 167 173 172
77 73 72 72 61 56 53 51 50 48 54 52 53 52 51 48 36 30 33 53 55 60 63 66 67 69 65 66 80 89 100 107 117 127 136 141 147 155 168 185 165 170 188
82 81 80 77 71 62 59 56 58 57 56 58 53 53 49 43 27 29 33 43 49 52 57 67 77 70 70 73 75 76 84 101 115 119 128 133 138 143 155 148 132 143 168
85 84 82 80 75 65 64 64 61 60 62 64 63 60 55 36 26 24 27 38 53 50 48 46 57 55 51 63 77 77 70 66 71 90 94 101 106 98 99 98 101 109 140
93 87 89 89 86 77 69 64 65 65 67 70 69 65 59 39 25 21 19 51 58 54 51 53 58 48 38 42 66 72 68 57 59 71 74 74 75 58 54 84 129 134 194
100 88 82 82 83 81 77 71 69 72 72 75 74 66 57 39 24 20 13 61 67 63 57 49 49 48 32 40 59 69 76 79 77 81 85 91 91 81 62 42 30 61 139
96 90 85 83 85 81 73 71 73 71 74 79 72 64 58 48 30 25 15 47 70 82 81 69 54 46 36 37 49 59 60 51 71 91 91 117 148 146 145 105 25 26 51
98 95 90 91 96 91 80 73 76 75 75 83 85 77 67 54 47 35 29 28 25 58 75 70 52 38 36 33 41 53 46 357 350 110 140 153 145 148 175 176 100 71 57
100 95 94 93 93 100 96 81 85 94 101 104 110 102 91 70 47 35 32 34 30 45 56 61 62 37 26 13 19 8 356 342 312 52 93 91 99 103 109 117 153 199 218
110 104 102 94 79 81 91 105 115 122 125 122 130 121 114 108 80 34 28 32 33 39 44 41 17 351 336 315 304 323 328 319 11 45 52 52 75 106 192 229 242 248 261
117 116 117 111 100 80 44 47 54 41 34 40 50 80 94 80 55 21 2 52 40 33 5 321 280 282 280 295 295 285 277 37 30 13 21 5 14 273 263 239 240 243 259
130 135 131 121 103 85 70 46 57 58 54 41 27 31 50 69 43 26 20 18 8 10 334 295 253 232 224 218 226 214 140 106 36 337 352 332 316 291 287 281 277 285 274
148 148 144 142 142 138 127 103 59 79 85 77 68 66 75 81 71 25 22 4 352 352 342 306 315 345 359 22 22 16 61 69 25 346 342 341 338 334 316 308 294 290 294
147 148 157 154 156 157 153 150 145 128 88 77 79 84 101 120 351 349 349 339 323 322 300 297 330 355 358 5 12 31 46 60 28 320 320 324 324 326 319 308 305 307 309
166 160 187 176 166 166 171 173 162 163 169 173 191 217 224 245 277 300 329 330 295 262 253 278 317 347 355 19 21 25 18 7 354 348 342 344 344 328 314 309 309 310 309
186 167 186 174 181 180 184 181 162 165 167 164 163 188 225 239 260 270 275 266 277 284 278 273 327 10 13 17 356 321 305 309 324 320 302 304 311 312 311 309 300 294 283
170 145 229 228 205 206 212 195 169 170 172 170 170 171 182 205 223 227 222 238 255 271 310 340 9 291 259 248 235 244 265 270 263 264 275 289 295 294 296 297 297 295 285
182 176 210 238 226 219 214 208 185 195 193 179 160 145 169 220 232 220 210 214 233 245 243 272 262 250 238 246 251 2 337 306 303 307 314 305 295 288 284 283 284 284 286
204 190 197 217 217 215 223 225 210 211 206 188 164 171 193 234 256 238 218 196 210 224 227 267 294 310 332 336 6 320 287 280 289 317 317 311 302 293 288 287 290 294 294
229 216 195 200 214 199 224 238 233 230 226 204 199 181 185 219 240 226 211 199 204 215 218 221 246 274 285 279 289 286 299 324 328 334 304 293 294 294 291 291 293 294 292
230 224 212 205 214 211 212 221 227 228 225 211 213 212 197 207 228 222 218 209 210 212 217 220 230 239 246 238 234 239 211 238 285 290 295 292 291 289 291 289 288 290 291
237 232 226 218 214 214 217 226 231 232 229 222 222 223 221 214 213 216 215 211 215 220 226 226 223 229 233 234 227 209 191 202 215 248 266 267 274 277 278 281 283 286 286
230 235 234 226 219 219 225 231 230 231 232 232 232 232 237 237 228 225 218 219 223 225 228 231 229 231 229 227 223 212 202 207 214 224 241 257 265 270 275 277 283 284 284